STARLINK-1331, 45578

Orbit data source: Space-Track

STARLINK-1331, 45578 is a payload satellite owned by SpaceX/Seattle (US) in LEO that was launched on Wed, 22 Apr 2020 UTC via an FALCON 9 launch vehicle from the Air Force Eastern Test Range (AFETR). Payload-class satellites include a variety of spacecraft equipped with specific instruments for various scientific and technological missions. These include communications satellites like Starlink; space stations such as the ISS; scientific satellites like the Hubble; Earth observation satellites from companies like Planet Labs, Umbra, and HawkEye 360; GPS; miniature CubeSats for education and research; and military/defense satellites.

Not visible in the next 10 days
Identifier
45578, 2020-025AZ
Orbit
LEO
Country
Flag of USUS
Related business
Manufacturer
SpaceX/Seattle
Mission
Partially operational Commercial Communications
Bus & Motor
STARLINK, Unknown motor
Mass
260 kg wet, ~248 kg dry
Launch date (UTC)
2020-04-22 (6 years ago)
Launch vehicle
FALCON 9
Launch site
Air Force Eastern Test Range (AFETR)
Object type
Payload
Rocket body
Debris
Shape & HBR
Box + 1 Pan, 10.1 m
Radar Cross Section
13.562 m², Large (>1 m²)

Expand to show TLE details & history
Last TLE update: 5 hours ago

TLE from 5 hours ago
0 STARLINK-1331
1 45578U 20025AZ  26255.31614761  .00079960  00000-0  41149-3 0  9990
2 45578  53.0403 229.3370 0005195  50.9784 309.1699 15.80502826354900
Epoch: 2026-09-12T07:35Z
TLE epoch observation values (Epoch: 2026-09-12T07:35:15.153Z)
Latitude
-0.00001°
Longitude
124.19696°
Altitude
327.724 km
Speed
7.714 km/s
True Right ascension
15h 17m 20s
True Declination
0° 00' 00"
Sunlit
Object was in daylight at epoch
Visualization orbit readout
Latitude
Unknown
Longitude
Unknown
Altitude
Unknown
Speed
Unknown
Apparent Right ascension
Unknown
Apparent Declination
Unknown
Sunlit
N/A
Visualization observer readout
Local Sidereal Time
05:28:04
Azimuth
Unknown
Elevation
Unknown
Doppler factor
Unknown
Orbital elements
Apogee altitude
332.784 km
Perigee altitude
325.815 km
Semi-major axis
6,707.436 km
Eccentricity
0.00052
Inclination
53.0403°
RAAN
229.337°
Arg. of periapsis
50.9784°
True anomaly
309.12373°
Mean anomaly
309.1699°
Eccentric anomaly
309.14682°
Mean motion
3.95101 °/min
Orbital period
91.12 mins
BSTAR
0.00041149
Loading maneuver chart data...
Computing Atmospheric mass density...
Loading historical data...
Loading historical data...
Loading historical data...
Loading historical data...
Loading historical data...
Loading historical data...
Loading historical data...

Documentation

Showing up to 5 results
|